Change the Weather History Date:

Saturday, July 13, 2013

  Actual Average Record
Temperature  
Mean Temperature 76 °F -  
Max Temperature 85 °F 88 °F 97 °F (2010)
Min Temperature 68 °F 69 °F 68 °F (2001)
Cooling Degree Days 11    
Growing Degree Days 26 (Base 50)    
Moisture  
Dew Point 70 °F    
Average Humidity 89    
Maximum Humidity 100    
Minimum Humidity 67    
Precipitation  
Precipitation 1.83 in - - ()
Sea Level Pressure  
Sea Level Pressure 29.97 in    
Wind  
Wind Speed 6 mph (East)    
Max Wind Speed 23 mph    
Max Gust Speed 36 mph    
Visibility 7 miles    
Events Fog , Rain , Thunderstorm    
Averages and records for this station are not official NWS values.
T = Trace of Precipitation, MM = Missing Value Source: NWS Daily Summary

Daily Weather History Graph

Daily Weather History Graph

Search for Another Location

Airport or City:

Trip Planner

Search our weather history database for the weather conditions in past years. The results will help you decide how hot, cold, wet, or windy it might be!

Date:

Astronomy

Jul. 13, 2013 Rise Set
Actual Time 5:48 AM CDT 7:48 PM CDT
Civil Twilight 5:20 AM CDT 8:16 PM CDT
Nautical Twilight 4:47 AM CDT 8:49 PM CDT
Astronomical Twilight 4:11 AM CDT 9:25 PM CDT
Moon 10:40 AM CDT (7/13) 10:54 PM CDT (7/13)
Length of Visible Light 14h 55m
Length of Day
14h 00m
Waxing Crescent, 26% of the Moon is Illuminated
Jul 13
Waxing Crescent
Jul 15
First Quarter
Jul 22
Full
Jul 29
Last Quarter
Aug 6
New

Hourly Weather History & Observations

Time (CDT) Temp. Heat Index Dew Point Humidity Pressure Visibility Wind Dir Wind Speed Gust Speed Precip Events Conditions
12:58 AM 72.5 °F - 71.2 °F 96% 29.92 in 10.0 mi Calm Calm - N/A   Mostly Cloudy
1:58 AM 72.7 °F - 71.6 °F 96% 29.92 in 10.0 mi NW 5.8 mph - N/A   Clear
2:58 AM 72.0 °F - 71.4 °F 98% 29.91 in 10.0 mi Calm Calm - N/A   Clear
3:58 AM 71.1 °F - 70.5 °F 98% 29.91 in 10.0 mi East 6.9 mph - N/A   Partly Cloudy
4:58 AM 70.9 °F - 70.3 °F 98% 29.90 in 10.0 mi SE 3.5 mph - N/A   Clear
5:43 AM 69.8 °F - 69.8 °F 100% 29.91 in 10.0 mi SSE 2.3 mph - N/A   Partly Cloudy
5:58 AM 70.3 °F - 70.0 °F 99% 29.91 in 10.0 mi South 2.3 mph - N/A   Scattered Clouds
6:03 AM 69.8 °F - 69.8 °F 100% 29.91 in 10.0 mi SSW 3.5 mph - N/A   Mostly Cloudy
6:13 AM 69.8 °F - 69.8 °F 100% 29.91 in 7.0 mi SSW 2.3 mph - N/A   Mostly Cloudy
6:28 AM 69.8 °F - 69.8 °F 100% 29.91 in 2.5 mi South 1.2 mph - N/A   Overcast
6:53 AM 69.8 °F - 69.8 °F 100% 29.92 in 1.8 mi SW 2.3 mph - N/A   Overcast
6:58 AM 70.7 °F - 70.3 °F 99% 29.92 in 2.5 mi WNW 1.2 mph - N/A   Overcast
7:03 AM 71.6 °F - 69.8 °F 94% 29.91 in 3.0 mi WSW 2.3 mph - N/A   Overcast
7:58 AM 72.1 °F - 71.8 °F 99% 29.95 in 10.0 mi Variable 3.5 mph - N/A   Overcast
8:03 AM 71.6 °F - 71.6 °F 100% 29.95 in 10.0 mi ENE 3.5 mph - N/A   Overcast
8:28 AM 73.4 °F - 71.6 °F 94% 29.97 in 10.0 mi ENE 5.8 mph - N/A   Overcast
8:58 AM 74.1 °F - 73.0 °F 96% 29.97 in 10.0 mi ENE 8.1 mph - N/A   Overcast
9:08 AM 75.2 °F - 73.4 °F 94% 29.97 in 10.0 mi East 8.1 mph - N/A   Overcast
9:18 AM 75.2 °F - 73.4 °F 94% 29.98 in 10.0 mi East 9.2 mph - N/A   Overcast
9:23 AM 75.2 °F - 73.4 °F 94% 29.98 in 10.0 mi East 8.1 mph - N/A   Overcast
9:28 AM 75.2 °F - 71.6 °F 89% 29.98 in 10.0 mi East 8.1 mph - N/A   Overcast
9:48 AM 77.0 °F - 73.4 °F 89% 29.98 in 10.0 mi ENE 6.9 mph - N/A   Overcast
9:53 AM 77.0 °F - 71.6 °F 83% 29.98 in 10.0 mi Variable 3.5 mph - N/A   Mostly Cloudy
9:58 AM 78.8 °F - 71.6 °F 78% 29.98 in 10.0 mi East 5.8 mph - N/A   Mostly Cloudy
10:53 AM 80.6 °F 85.4 °F 73.4 °F 79% 29.98 in 10.0 mi SE 8.1 mph - N/A   Mostly Cloudy
10:58 AM 80.6 °F 85.4 °F 73.4 °F 79% 29.98 in 10.0 mi ESE 8.1 mph - N/A   Mostly Cloudy
11:08 AM 82.4 °F 88.2 °F 73.4 °F 74% 29.98 in 10.0 mi SE 8.1 mph - N/A   Mostly Cloudy
11:18 AM 82.4 °F 88.2 °F 73.4 °F 74% 29.98 in 10.0 mi ESE 6.9 mph - N/A   Mostly Cloudy
11:28 AM 80.6 °F 85.4 °F 73.4 °F 79% 29.98 in 10.0 mi Variable 3.5 mph - N/A   Mostly Cloudy
11:53 AM 82.4 °F 88.2 °F 73.4 °F 74% 29.97 in 10.0 mi East 3.5 mph - N/A   Mostly Cloudy
11:58 AM 83.1 °F 89.5 °F 73.8 °F 73% 29.97 in 10.0 mi SSE 8.1 mph - N/A   Mostly Cloudy
12:58 PM 84.9 °F 92.1 °F 73.6 °F 69% 29.96 in 10.0 mi East 5.8 mph - N/A   Overcast
1:58 PM 84.0 °F 90.2 °F 73.0 °F 69% 29.94 in 10.0 mi SE 8.1 mph - N/A   Scattered Clouds
2:58 PM 84.4 °F 90.6 °F 72.7 °F 68% 29.93 in 10.0 mi SE 8.1 mph - N/A   Mostly Cloudy
3:58 PM 84.2 °F 89.9 °F 72.0 °F 67% 29.93 in 10.0 mi SE 6.9 mph - N/A   Scattered Clouds
4:58 PM 83.3 °F 89.0 °F 72.7 °F 70% 29.92 in 10.0 mi SE 4.6 mph - N/A   Clear
5:58 PM 82.0 °F 86.7 °F 71.8 °F 71% 29.93 in 10.0 mi ESE 3.5 mph - N/A   Clear
6:28 PM 82.4 °F 87.2 °F 71.6 °F 70% 29.94 in 10.0 mi ESE 2.3 mph - N/A Thunderstorm Thunderstorm
6:50 PM 80.6 °F 85.4 °F 73.4 °F 79% 29.95 in 10.0 mi Variable 2.3 mph - N/A   Mostly Cloudy
6:58 PM 80.1 °F 84.2 °F 72.9 °F 79% 29.96 in 10.0 mi East 10.4 mph - N/A   Overcast
6:59 PM 78.8 °F - 69.8 °F 74% 29.96 in 10.0 mi ENE 12.7 mph - N/A Thunderstorm Thunderstorm
7:00 PM 77.0 °F - 69.8 °F 78% 29.96 in 10.0 mi ENE 13.8 mph 17.3 mph N/A Rain , Thunderstorm Light Thunderstorms and Rain
7:05 PM 75.2 °F - 68.0 °F 78% 29.96 in 5.0 mi Variable 4.6 mph 17.3 mph N/A Rain , Thunderstorm Light Thunderstorms and Rain
7:10 PM 73.4 °F - 68.0 °F 83% 29.96 in 1.0 mi Variable 6.9 mph - N/A Rain , Thunderstorm Heavy Thunderstorms and Rain
7:15 PM 71.6 °F - 69.8 °F 94% 29.98 in 0.2 mi East 12.7 mph - N/A Fog , Rain , Thunderstorm Heavy Thunderstorms and Rain
7:20 PM 71.6 °F - 68.0 °F 88% 29.97 in 0.2 mi Variable 1.2 mph - N/A Fog , Rain , Thunderstorm Heavy Thunderstorms and Rain
7:25 PM 73.4 °F - 68.0 °F 83% 29.97 in 0.2 mi East 8.1 mph - N/A Rain , Thunderstorm Heavy Thunderstorms and Rain
7:30 PM 71.6 °F - 68.0 °F 88% 29.97 in 0.8 mi ESE 10.4 mph - N/A Rain , Thunderstorm Heavy Thunderstorms and Rain
7:35 PM 69.8 °F - 68.0 °F 94% 29.97 in 1.2 mi SE 10.4 mph - N/A Rain , Thunderstorm Heavy Thunderstorms and Rain
7:40 PM 69.8 °F - 68.0 °F 94% 29.97 in 2.5 mi ESE 6.9 mph - N/A Rain , Thunderstorm Thunderstorms and Rain
7:45 PM 69.8 °F - 68.0 °F 94% 29.98 in 4.0 mi SE 4.6 mph - N/A Rain , Thunderstorm Thunderstorms and Rain
7:47 PM 69.8 °F - 68.0 °F 94% 29.98 in 4.0 mi SSE 4.6 mph - N/A Rain Rain
7:58 PM 69.8 °F - 68.0 °F 94% 29.98 in 3.0 mi NW 10.4 mph - 1.28 in Rain Rain
8:00 PM 69.8 °F - 68.0 °F 94% 29.99 in 4.0 mi NW 10.4 mph - N/A Rain , Thunderstorm Thunderstorms and Rain
8:20 PM 69.8 °F - 68.0 °F 94% 30.00 in 5.0 mi North 12.7 mph - N/A Rain , Thunderstorm Heavy Thunderstorms and Rain
8:25 PM 69.8 °F - 68.0 °F 94% 30.00 in 5.0 mi NNE 21.9 mph 26.5 mph N/A Rain Rain
8:30 PM 69.8 °F - 68.0 °F 94% 30.00 in 2.5 mi North 20.7 mph 26.5 mph N/A Rain Heavy Rain
8:35 PM 69.8 °F - 68.0 °F 94% 30.00 in 1.8 mi North 17.3 mph 26.5 mph N/A Rain Heavy Rain
8:40 PM 69.8 °F - 68.0 °F 94% 30.01 in 2.5 mi NNE 16.1 mph 23.0 mph N/A Rain Heavy Rain
8:50 PM 68.0 °F - 68.0 °F 100% 30.02 in 1.8 mi NNW 16.1 mph 35.7 mph N/A Rain Heavy Rain
8:55 PM 68.0 °F - 66.2 °F 94% 30.01 in 1.5 mi North 23.0 mph 35.7 mph N/A Rain Heavy Rain
8:58 PM 68.0 °F - 66.2 °F 94% 30.01 in 1.8 mi NNW 19.6 mph 28.8 mph N/A Rain Heavy Rain
9:03 PM 68.0 °F - 66.2 °F 94% 30.01 in 2.5 mi North 16.1 mph 28.8 mph N/A Rain Heavy Rain
9:08 PM 68.0 °F - 66.2 °F 94% 30.01 in 4.0 mi NNW 13.8 mph - N/A Rain Heavy Rain
9:18 PM 68.0 °F - 66.2 °F 94% 30.00 in 3.0 mi NW 6.9 mph - N/A Rain Heavy Rain
9:23 PM 68.0 °F - 66.2 °F 94% 30.00 in 2.5 mi North 3.5 mph - N/A Rain Heavy Rain
9:28 PM 68.0 °F - 66.2 °F 94% 30.00 in 3.0 mi NE 5.8 mph - N/A Rain Heavy Rain
9:38 PM 69.8 °F - 68.0 °F 94% 30.00 in 2.5 mi East 9.2 mph - N/A Rain Heavy Rain
9:53 PM 69.8 °F - 69.8 °F 100% 30.00 in 3.0 mi ESE 9.2 mph - N/A Rain Rain
9:58 PM 70.2 °F - 69.3 °F 97% 29.99 in 4.0 mi ESE 9.2 mph - 0.50 in Rain Rain
10:18 PM 71.6 °F - 69.8 °F 94% 29.99 in 10.0 mi ESE 5.8 mph - N/A Rain Light Rain
10:45 PM 71.6 °F - 69.8 °F 94% 30.00 in 10.0 mi ENE 5.8 mph - N/A   Scattered Clouds
10:59 PM 70.7 °F - 69.4 °F 96% 30.00 in 10.0 mi NE 3.5 mph - 0.04 in   Partly Cloudy
11:14 PM 71.6 °F - 69.8 °F 94% 29.99 in 10.0 mi NE 8.1 mph - N/A   Light Drizzle
11:24 PM 71.6 °F - 69.8 °F 94% 29.99 in 10.0 mi ENE 8.1 mph - N/A   Partly Cloudy
11:58 PM 70.9 °F - 70.0 °F 97% 29.99 in 10.0 mi East 6.9 mph - 0.01 in   Scattered Clouds